Weather History for Orangeburg, SC

Change the Weather History Date:

Wednesday, February 29, 2012

  Actual Average Record
Temperature  
Mean Temperature 69 °F 53 °F  
Max Temperature 82 °F 64 °F 82 °F (2012)
Min Temperature 55 °F 41 °F 27 °F (2004)
Degree Days  
Heating Degree Days 0 13  
Month to date heating degree days 357 448  
Since 1 July heating degree days 1586 1945  
Cooling Degree Days 4 0  
Month to date cooling degree days 12 2  
Year to date cooling degree days 12 3  
Growing Degree Days 18 (Base 50)    
Moisture  
Dew Point 57 °F    
Average Humidity 75    
Maximum Humidity 93    
Minimum Humidity 45    
Precipitation  
Precipitation 0.05 in 0.14 in 0.79 in (1968)
Month to date precipitation 1.41 3.59  
Year to date precipitation 3.18 7.57  
Sea Level Pressure  
Sea Level Pressure 30.13 in    
Wind  
Wind Speed 7 mph (SW)    
Max Wind Speed 23 mph    
Max Gust Speed 32 mph    
Visibility 9 miles    
Events Rain    
T = Trace of Precipitation, MM = Missing Value Source: NWS Daily Summary

Daily Weather History Graph

Daily Weather History Graph

Search for Another Location

Airport:

Trip Planner

Search our weather history database for the weather conditions in past years. The results will help you decide how hot, cold, wet, or windy it might be!

Date:

Astronomy

Feb. 29, 2012 Rise Set
Actual Time 6:52 AM EST 6:19 PM EST
Civil Twilight 6:27 AM EST 6:44 PM EST
Nautical Twilight 5:58 AM EST 7:13 PM EST
Astronomical Twilight 5:29 AM EST 7:42 PM EST
Moon 11:04 AM EST (2/29) 12:43 AM EST (2/29)
Length of Visible Light 12h 17m
Length of Day
11h 27m
Waxing Crescent, 47% of the Moon is Illuminated
Feb 29
Waxing Crescent
Feb 29
First Quarter
Mar 8
Full
Mar 14
Last Quarter
Mar 22
New

Hourly Weather History & Observations

Time (EST) Temp. Heat Index Dew Point Humidity Pressure Visibility Wind Dir Wind Speed Gust Speed Precip Events Conditions
12:53 AM 55.9 °F - 51.1 °F 84% 30.28 in 10.0 mi Calm Calm - N/A   Mostly Cloudy
1:53 AM 55.9 °F - 51.1 °F 84% 30.27 in 10.0 mi Calm Calm - N/A   Overcast
2:53 AM 55.9 °F - 52.0 °F 87% 30.23 in 10.0 mi SSE 3.5 mph - N/A   Overcast
3:53 AM 55.9 °F - 52.0 °F 87% 30.22 in 9.0 mi Calm Calm - N/A   Overcast
4:00 AM 55.4 °F - 51.8 °F 88% 30.22 in 9.0 mi Calm Calm - N/A   Overcast
4:53 AM 55.9 °F - 53.1 °F 90% 30.22 in 9.0 mi Calm Calm - N/A   Overcast
5:53 AM 55.9 °F - 52.0 °F 87% 30.21 in 8.0 mi Calm Calm - N/A   Overcast
6:53 AM 55.9 °F - 53.1 °F 90% 30.22 in 8.0 mi Calm Calm - N/A   Overcast
7:24 AM 55.4 °F - 53.6 °F 94% 30.22 in 6.0 mi Calm Calm - N/A   Overcast
7:53 AM 57.0 °F - 53.1 °F 87% 30.22 in 5.0 mi Calm Calm - N/A   Overcast
8:53 AM 57.9 °F - 55.0 °F 90% 30.22 in 3.0 mi Calm Calm - N/A   Overcast
9:08 AM 59.0 °F - 55.4 °F 88% 30.21 in 5.0 mi South 4.6 mph - N/A   Overcast
9:41 AM 62.6 °F - 57.2 °F 82% 30.18 in 9.0 mi South 6.9 mph - N/A   Overcast
9:53 AM 62.1 °F - 57.0 °F 84% 30.17 in 8.0 mi South 6.9 mph - N/A   Overcast
10:46 AM 68.0 °F - 60.8 °F 78% 30.16 in 10.0 mi SSW 10.4 mph 18.4 mph N/A   Mostly Cloudy
10:53 AM 69.1 °F - 61.0 °F 75% 30.15 in 10.0 mi SW 12.7 mph 16.1 mph N/A   Mostly Cloudy
11:05 AM 69.8 °F - 60.8 °F 73% 30.15 in 10.0 mi SW 10.4 mph 19.6 mph N/A   Partly Cloudy
11:53 AM 72.0 °F - 60.1 °F 66% 30.14 in 10.0 mi WSW 12.7 mph - N/A   Clear
12:53 PM 75.0 °F - 60.1 °F 60% 30.10 in 10.0 mi SW 12.7 mph - N/A   Clear
1:53 PM 80.1 °F 80.9 °F 60.1 °F 50% 30.05 in 10.0 mi SW 12.7 mph - N/A   Scattered Clouds
2:53 PM 80.1 °F 80.6 °F 57.9 °F 47% 30.03 in 10.0 mi WSW 17.3 mph 21.9 mph N/A   Mostly Cloudy
3:53 PM 79.0 °F - 57.9 °F 48% 30.00 in 10.0 mi WSW 16.1 mph 23.0 mph N/A   Scattered Clouds
4:53 PM 79.0 °F - 57.9 °F 48% 30.00 in 10.0 mi West 19.6 mph 24.2 mph N/A   Scattered Clouds
5:53 PM 77.0 °F - 57.9 °F 52% 29.99 in 10.0 mi WSW 13.8 mph - N/A   Mostly Cloudy
6:53 PM 73.9 °F - 57.9 °F 57% 29.97 in 10.0 mi SW 4.6 mph - N/A   Scattered Clouds
8:53 PM 72.0 °F - 60.1 °F 66% 29.99 in 10.0 mi WSW 6.9 mph - N/A   Mostly Cloudy
9:53 PM 72.0 °F - 60.1 °F 66% 29.98 in 10.0 mi SSW 8.1 mph - N/A   Mostly Cloudy
10:53 PM 73.0 °F - 61.0 °F 66% 29.99 in 10.0 mi WSW 12.7 mph - N/A   Scattered Clouds
11:35 PM 64.4 °F - 59.0 °F 83% 30.02 in 4.0 mi WNW 9.2 mph 32.2 mph 0.03 in Rain Light Rain
11:53 PM 64.0 °F - 57.9 °F 80% 30.00 in 10.0 mi WNW 6.9 mph - 0.04 in Rain Light Rain